KAL629 RKSI-ZSSS

Flight info

Callsign KAL629
Flight time 1h 38m
Altitude 34000
Route BOPTA3C BOPTA Z51 BEDES Y711 PONIK A593 LAMEN/K0907F280 A593 AKARA/K0906S0840 A593 PUD PUD61A
Aircraft B77L/H-SDE1E2E3FGHIJ2J3J4J5M1RWXY/LB1D1

Departure

Time 2026-05-05 04:52
Airport Incheon International Airport (RKSI)

Arrival

Time 2026-05-05 06:30
Airport Shanghai Hongqiao International Airport (ZSSS)
Time Latitude Longitude Altitude Speed Heading
2026-05-05 04:26 37.46562 126.46782 36 ft 0 kts 145°
2026-05-05 04:36 37.46572 126.46774 37 ft 1 kts 147°
2026-05-05 04:36 37.46586 126.46763 37 ft 1 kts 150°
2026-05-05 04:37 37.46600 126.46753 37 ft 1 kts 154°
2026-05-05 04:37 37.46615 126.46745 37 ft 2 kts 161°
2026-05-05 04:37 37.46630 126.46739 37 ft 2 kts 172°
2026-05-05 04:37 37.46645 126.46737 37 ft 1 kts 188°
2026-05-05 04:38 37.46657 126.46741 37 ft 1 kts 213°
2026-05-05 04:38 37.46666 126.46750 37 ft 1 kts 234°
2026-05-05 04:38 37.46675 126.46766 37 ft 2 kts 234°
2026-05-05 04:38 37.46681 126.46776 37 ft 0 kts 234°
2026-05-05 04:42 37.46680 126.46774 37 ft 2 kts 234°
2026-05-05 04:42 37.46648 126.46718 37 ft 14 kts 234°
2026-05-05 04:42 37.46573 126.46585 37 ft 22 kts 234°
2026-05-05 04:43 37.46496 126.46451 37 ft 11 kts 233°
2026-05-05 04:43 37.46450 126.46370 37 ft 12 kts 235°
2026-05-05 04:43 37.46398 126.46289 37 ft 12 kts 224°
2026-05-05 04:43 37.46345 126.46209 37 ft 12 kts 252°
2026-05-05 04:44 37.46369 126.46118 37 ft 12 kts 322°
2026-05-05 04:44 37.46434 126.46059 37 ft 11 kts 324°
2026-05-05 04:44 37.46495 126.46009 37 ft 10 kts 329°
2026-05-05 04:44 37.46553 126.45961 37 ft 10 kts 325°
2026-05-05 04:45 37.46607 126.45914 37 ft 9 kts 325°
2026-05-05 04:45 37.46659 126.45870 37 ft 9 kts 325°
2026-05-05 04:45 37.46743 126.45795 37 ft 20 kts 324°
2026-05-05 04:45 37.46885 126.45664 37 ft 30 kts 321°
2026-05-05 04:46 37.47048 126.45509 37 ft 26 kts 329°
2026-05-05 04:46 37.47226 126.45360 37 ft 35 kts 323°
2026-05-05 04:46 37.47437 126.45157 37 ft 41 kts 321°
2026-05-05 04:46 37.47588 126.45028 37 ft 22 kts 328°
2026-05-05 04:47 37.47712 126.44926 37 ft 20 kts 326°
2026-05-05 04:47 37.47787 126.44861 37 ft 19 kts 325°
2026-05-05 04:47 37.47895 126.44764 37 ft 19 kts 325°
2026-05-05 04:47 37.47999 126.44673 37 ft 18 kts 325°
2026-05-05 04:48 37.48097 126.44589 37 ft 17 kts 326°
2026-05-05 04:48 37.48188 126.44505 37 ft 16 kts 323°
2026-05-05 04:48 37.48274 126.44426 37 ft 15 kts 323°
2026-05-05 04:48 37.48357 126.44356 37 ft 14 kts 326°
2026-05-05 04:49 37.48441 126.44282 37 ft 14 kts 324°
2026-05-05 04:49 37.48449 126.44275 37 ft 2 kts 322°
2026-05-05 04:49 37.48468 126.44222 37 ft 10 kts 274°
2026-05-05 04:49 37.48467 126.44193 37 ft 6 kts 259°
2026-05-05 04:50 37.48444 126.44109 37 ft 14 kts 233°
2026-05-05 04:50 37.48363 126.43993 37 ft 21 kts 230°
2026-05-05 04:50 37.48263 126.43831 37 ft 18 kts 235°
2026-05-05 04:50 37.48192 126.43706 37 ft 20 kts 231°
2026-05-05 04:51 37.48121 126.43682 37 ft 11 kts 159°
2026-05-05 04:51 37.48032 126.43757 37 ft 28 kts 144°
2026-05-05 04:51 37.47521 126.44198 37 ft 152 kts 141°
2026-05-05 04:51 37.46467 126.45227 496 ft 220 kts 144°
2026-05-05 04:52 37.45259 126.46491 2203 ft 221 kts 136°
2026-05-05 04:52 37.44171 126.47894 3803 ft 228 kts 130°
2026-05-05 04:52 37.43087 126.49478 4753 ft 248 kts 129°
2026-05-05 04:52 37.41952 126.51220 5756 ft 267 kts 128°
2026-05-05 04:53 37.40742 126.53082 6849 ft 282 kts 129°
2026-05-05 04:53 37.39479 126.55013 8130 ft 288 kts 128°
2026-05-05 04:53 37.38122 126.56911 9395 ft 294 kts 138°
2026-05-05 04:53 37.36486 126.58389 10655 ft 296 kts 152°
2026-05-05 04:54 37.34643 126.59601 11798 ft 304 kts 158°
2026-05-05 04:54 37.32661 126.60597 12913 ft 309 kts 163°
2026-05-05 04:54 37.30581 126.61469 14114 ft 314 kts 165°
2026-05-05 04:54 37.28507 126.62230 15262 ft 315 kts 172°
2026-05-05 04:55 37.26341 126.62661 16405 ft 317 kts 178°
2026-05-05 04:55 37.24108 126.62836 17415 ft 324 kts 182°
2026-05-05 04:55 37.21839 126.62829 18486 ft 328 kts 186°
2026-05-05 04:55 37.19545 126.62732 19536 ft 333 kts 186°
2026-05-05 04:56 37.17214 126.62653 20600 ft 335 kts 186°
2026-05-05 04:56 37.14898 126.62594 21818 ft 334 kts 186°
2026-05-05 04:56 37.12557 126.62536 22790 ft 339 kts 187°
2026-05-05 04:56 37.10176 126.62495 23713 ft 345 kts 186°
2026-05-05 04:57 37.07747 126.62472 24589 ft 352 kts 187°
2026-05-05 04:57 37.05281 126.62444 25501 ft 356 kts 187°
2026-05-05 04:57 37.02783 126.62413 26406 ft 361 kts 187°
2026-05-05 04:57 37.00263 126.62382 27289 ft 365 kts 187°
2026-05-05 04:58 36.97720 126.62351 28284 ft 365 kts 187°
2026-05-05 04:58 36.95159 126.62374 29081 ft 372 kts 185°
2026-05-05 04:58 36.92556 126.62419 29889 ft 376 kts 185°
2026-05-05 04:58 36.89927 126.62455 30642 ft 381 kts 185°
2026-05-05 04:59 36.87263 126.62472 31393 ft 384 kts 186°
2026-05-05 04:59 36.84588 126.62346 32115 ft 386 kts 188°
2026-05-05 04:59 36.81896 126.62131 32758 ft 391 kts 188°
2026-05-05 04:59 36.79156 126.61938 33375 ft 396 kts 187°
2026-05-05 05:00 36.76389 126.61780 33876 ft 399 kts 187°
2026-05-05 05:00 36.73603 126.61830 34015 ft 402 kts 179°
2026-05-05 05:00 36.70827 126.62383 34029 ft 406 kts 172°
2026-05-05 05:01 36.65332 126.64248 34022 ft 412 kts 168°
2026-05-05 05:01 36.59826 126.66211 34007 ft 412 kts 168°
2026-05-05 05:02 36.54304 126.68075 34002 ft 409 kts 168°
2026-05-05 05:02 36.48817 126.69909 34000 ft 409 kts 168°
2026-05-05 05:03 36.43316 126.71745 33999 ft 409 kts 168°
2026-05-05 05:03 36.37812 126.73584 34005 ft 409 kts 169°
2026-05-05 05:04 36.32309 126.75449 34026 ft 411 kts 170°
2026-05-05 05:04 36.26796 126.77304 34020 ft 410 kts 170°
2026-05-05 05:05 36.21293 126.79154 34019 ft 409 kts 170°
2026-05-05 05:05 36.15845 126.80854 34096 ft 400 kts 181°
2026-05-05 05:06 36.10425 126.80954 34096 ft 390 kts 195°
2026-05-05 05:06 36.04998 126.80160 34100 ft 400 kts 195°
2026-05-05 05:06 36.02165 126.79809 34118 ft 418 kts 195°
2026-05-05 05:07 35.99216 126.79491 34117 ft 432 kts 195°
2026-05-05 05:07 35.93178 126.78843 34115 ft 443 kts 195°
2026-05-05 05:08 35.87018 126.78172 34114 ft 439 kts 196°
2026-05-05 05:08 35.80863 126.77509 34127 ft 456 kts 197°
2026-05-05 05:09 35.74425 126.76812 34131 ft 469 kts 197°
2026-05-05 05:09 35.67918 126.76106 34130 ft 472 kts 196°
2026-05-05 05:10 35.61376 126.75401 34112 ft 472 kts 195°
2026-05-05 05:10 35.54821 126.74699 34109 ft 474 kts 195°
2026-05-05 05:11 35.48246 126.73984 34099 ft 472 kts 194°
2026-05-05 05:11 35.41721 126.73288 34075 ft 471 kts 193°
2026-05-05 05:12 35.35177 126.72590 34078 ft 472 kts 193°
2026-05-05 05:12 35.28644 126.71890 34054 ft 470 kts 191°
2026-05-05 05:13 35.22128 126.71202 34052 ft 471 kts 191°
2026-05-05 05:13 35.15571 126.70504 34057 ft 473 kts 191°
2026-05-05 05:14 35.09056 126.69813 34049 ft 468 kts 191°
2026-05-05 05:14 35.02548 126.69124 34057 ft 472 kts 191°
2026-05-05 05:15 34.95998 126.68430 34062 ft 470 kts 192°
2026-05-05 05:15 34.89504 126.67744 34069 ft 466 kts 192°
2026-05-05 05:16 34.82977 126.67056 34071 ft 475 kts 192°
2026-05-05 05:16 34.76409 126.66362 34079 ft 469 kts 193°
2026-05-05 05:17 34.69984 126.65676 34072 ft 464 kts 192°
2026-05-05 05:17 34.63557 126.65000 34067 ft 463 kts 192°
2026-05-05 05:18 34.57159 126.64331 34080 ft 460 kts 192°
2026-05-05 05:18 34.50793 126.63664 34075 ft 461 kts 192°
2026-05-05 05:19 34.44406 126.62998 34085 ft 460 kts 193°
2026-05-05 05:19 34.38102 126.62336 34100 ft 453 kts 194°
2026-05-05 05:20 34.31827 126.61683 34096 ft 452 kts 193°
2026-05-05 05:20 34.25579 126.61038 34119 ft 444 kts 195°
2026-05-05 05:21 34.19442 126.60394 34126 ft 441 kts 195°
2026-05-05 05:21 34.13338 126.59755 34122 ft 440 kts 195°
2026-05-05 05:22 34.07267 126.59124 34146 ft 430 kts 196°
2026-05-05 05:22 34.01296 126.58502 34147 ft 430 kts 196°
2026-05-05 05:23 33.95366 126.57887 34149 ft 430 kts 196°
2026-05-05 05:23 33.89395 126.57269 34154 ft 431 kts 196°
2026-05-05 05:24 33.83552 126.56165 34156 ft 421 kts 205°
2026-05-05 05:24 33.78013 126.54126 34153 ft 413 kts 208°
2026-05-05 05:25 33.72632 126.51767 34162 ft 410 kts 210°
2026-05-05 05:25 33.67260 126.49404 34168 ft 411 kts 209°
2026-05-05 05:26 33.61878 126.47073 34169 ft 412 kts 209°
2026-05-05 05:26 33.56483 126.44744 34170 ft 412 kts 209°
2026-05-05 05:27 33.51082 126.42417 34171 ft 412 kts 209°
2026-05-05 05:27 33.43027 126.38948 34171 ft 412 kts 209°
2026-05-05 05:28 33.37633 126.36632 34171 ft 412 kts 209°
2026-05-05 05:28 33.32241 126.34320 34171 ft 412 kts 209°
2026-05-05 05:29 33.27721 126.32369 34171 ft 412 kts 209°
2026-05-05 05:29 33.22321 126.30049 34171 ft 413 kts 209°
2026-05-05 05:30 33.16916 126.27739 34171 ft 412 kts 209°
2026-05-05 05:30 33.11546 126.25447 34171 ft 412 kts 209°
2026-05-05 05:31 33.06136 126.23141 34171 ft 413 kts 209°
2026-05-05 05:31 33.00731 126.20839 34171 ft 412 kts 209°
2026-05-05 05:32 32.95342 126.18529 34171 ft 412 kts 209°
2026-05-05 05:32 32.89939 126.16213 34171 ft 412 kts 209°
2026-05-05 05:33 32.84545 126.13904 34171 ft 412 kts 209°
2026-05-05 05:33 32.79138 126.11593 34171 ft 412 kts 209°
2026-05-05 05:34 32.73745 126.09267 34171 ft 412 kts 209°
2026-05-05 05:34 32.68340 126.06955 34171 ft 414 kts 209°
2026-05-05 05:35 32.62903 126.04640 34171 ft 415 kts 208°
2026-05-05 05:35 32.57457 126.02324 34171 ft 416 kts 208°
2026-05-05 05:36 32.51993 126.00002 34171 ft 417 kts 208°
2026-05-05 05:36 32.46529 125.97682 34171 ft 418 kts 208°
2026-05-05 05:37 32.41034 125.95359 34171 ft 420 kts 208°
2026-05-05 05:37 32.35555 125.93044 34171 ft 421 kts 208°
2026-05-05 05:38 32.30033 125.90708 34171 ft 422 kts 208°
2026-05-05 05:38 32.24501 125.88358 34171 ft 423 kts 207°
2026-05-05 05:39 32.18964 125.86025 34171 ft 423 kts 207°
2026-05-05 05:39 32.13418 125.83693 34171 ft 423 kts 207°
2026-05-05 05:40 32.07866 125.81362 34171 ft 424 kts 207°
2026-05-05 05:40 32.02503 125.78682 34179 ft 410 kts 222°
2026-05-05 05:41 32.00523 125.76339 34174 ft 403 kts 238°
2026-05-05 05:41 31.99238 125.73424 34170 ft 401 kts 249°
2026-05-05 05:41 31.97774 125.67062 34163 ft 404 kts 255°
2026-05-05 05:42 31.96553 125.60645 34165 ft 403 kts 253°
2026-05-05 05:42 31.95191 125.54214 34164 ft 401 kts 252°
2026-05-05 05:43 31.93774 125.47870 34161 ft 401 kts 252°
2026-05-05 05:43 31.92356 125.41564 34160 ft 401 kts 252°
2026-05-05 05:44 31.90958 125.35222 34164 ft 399 kts 253°
2026-05-05 05:44 31.89570 125.28873 34165 ft 397 kts 253°
2026-05-05 05:45 31.88165 125.22649 34163 ft 397 kts 253°
2026-05-05 05:45 31.86738 125.16383 34163 ft 396 kts 253°
2026-05-05 05:46 31.85313 125.10134 34168 ft 395 kts 253°
2026-05-05 05:46 31.83890 125.03903 34167 ft 395 kts 253°
2026-05-05 05:47 31.82476 124.97654 34163 ft 396 kts 254°
2026-05-05 05:47 31.81120 124.91380 34155 ft 397 kts 254°
2026-05-05 05:48 31.79751 124.85079 34147 ft 397 kts 254°
2026-05-05 05:48 31.78376 124.78783 34139 ft 398 kts 254°
2026-05-05 05:49 31.76995 124.72482 34133 ft 399 kts 254°
2026-05-05 05:49 31.75606 124.66163 34120 ft 399 kts 254°
2026-05-05 05:50 31.74219 124.59833 34111 ft 400 kts 255°
2026-05-05 05:50 31.72859 124.53492 34105 ft 401 kts 254°
2026-05-05 05:51 31.71471 124.47129 34089 ft 402 kts 254°
2026-05-05 05:51 31.70067 124.40751 34059 ft 404 kts 253°
2026-05-05 05:52 31.68677 124.34400 34057 ft 404 kts 253°
2026-05-05 05:52 31.67279 124.28015 34118 ft 403 kts 253°
2026-05-05 05:53 31.65863 124.21664 33605 ft 400 kts 253°
2026-05-05 05:53 31.65151 124.18488 32811 ft 405 kts 253°
2026-05-05 05:53 31.64428 124.15266 31986 ft 410 kts 253°
2026-05-05 05:54 31.63703 124.12033 31454 ft 409 kts 253°
2026-05-05 05:54 31.62980 124.08817 31030 ft 404 kts 253°
2026-05-05 05:54 31.62267 124.05638 30571 ft 401 kts 253°
2026-05-05 05:54 31.61557 124.02484 30070 ft 399 kts 253°
2026-05-05 05:55 31.60853 123.99339 29584 ft 398 kts 253°
2026-05-05 05:55 31.60164 123.96206 29088 ft 396 kts 254°
2026-05-05 05:55 31.59481 123.93079 28602 ft 395 kts 254°
2026-05-05 05:55 31.58802 123.89976 28181 ft 392 kts 254°
2026-05-05 05:56 31.58126 123.86889 27736 ft 389 kts 254°
2026-05-05 05:56 31.57471 123.83820 27296 ft 387 kts 255°
2026-05-05 05:56 31.56816 123.80764 26858 ft 385 kts 255°
2026-05-05 05:56 31.56155 123.77733 26440 ft 382 kts 255°
2026-05-05 05:57 31.55489 123.74713 25966 ft 381 kts 255°
2026-05-05 05:57 31.54826 123.71705 25471 ft 381 kts 255°
2026-05-05 05:57 31.54158 123.68702 25009 ft 380 kts 255°
2026-05-05 05:57 31.53494 123.65708 24561 ft 379 kts 255°
2026-05-05 05:58 31.52830 123.62727 24103 ft 378 kts 255°
2026-05-05 05:58 31.52170 123.59755 23731 ft 375 kts 255°
2026-05-05 05:58 31.51511 123.56807 23313 ft 373 kts 255°
2026-05-05 05:58 31.50868 123.53915 23022 ft 369 kts 255°
2026-05-05 05:59 31.50225 123.51023 22828 ft 363 kts 255°
2026-05-05 05:59 31.49612 123.48174 22657 ft 358 kts 257°
2026-05-05 05:59 31.49052 123.45300 22347 ft 357 kts 258°
2026-05-05 05:59 31.48530 123.42462 21956 ft 358 kts 258°
2026-05-05 06:00 31.47996 123.39593 21450 ft 362 kts 258°
2026-05-05 06:00 31.47453 123.36696 20935 ft 366 kts 258°
2026-05-05 06:00 31.46898 123.33763 20421 ft 370 kts 258°
2026-05-05 06:00 31.46334 123.30808 20036 ft 372 kts 258°
2026-05-05 06:01 31.45775 123.27883 19896 ft 374 kts 258°
2026-05-05 06:01 31.45197 123.24868 19828 ft 376 kts 258°
2026-05-05 06:01 31.44632 123.21924 19765 ft 376 kts 258°
2026-05-05 06:01 31.44056 123.18932 19728 ft 376 kts 258°
2026-05-05 06:02 31.43481 123.15944 19717 ft 376 kts 258°
2026-05-05 06:02 31.42917 123.12950 19716 ft 377 kts 259°
2026-05-05 06:02 31.42370 123.09954 19719 ft 377 kts 259°
2026-05-05 06:02 31.41809 123.06956 19719 ft 377 kts 258°
2026-05-05 06:03 31.41238 123.03960 19716 ft 377 kts 258°
2026-05-05 06:03 31.40659 123.00961 19718 ft 377 kts 258°
2026-05-05 06:03 31.40078 122.97972 19718 ft 377 kts 258°
2026-05-05 06:03 31.39495 122.94980 19718 ft 377 kts 258°
2026-05-05 06:04 31.38912 122.91993 19719 ft 377 kts 258°
2026-05-05 06:04 31.38329 122.89005 19721 ft 377 kts 258°
2026-05-05 06:04 31.37745 122.86012 19718 ft 377 kts 258°
2026-05-05 06:04 31.37161 122.83021 19723 ft 377 kts 258°
2026-05-05 06:05 31.36578 122.80035 19723 ft 377 kts 258°
2026-05-05 06:05 31.35994 122.77041 19721 ft 377 kts 258°
2026-05-05 06:05 31.35431 122.74046 19722 ft 377 kts 259°
2026-05-05 06:05 31.34873 122.71053 19724 ft 377 kts 258°
2026-05-05 06:06 31.34307 122.68061 19724 ft 377 kts 258°
2026-05-05 06:06 31.33735 122.65075 19727 ft 377 kts 258°
2026-05-05 06:06 31.33159 122.62077 19726 ft 377 kts 258°
2026-05-05 06:06 31.32593 122.59129 19731 ft 377 kts 258°
2026-05-05 06:07 31.32016 122.56144 19739 ft 377 kts 258°
2026-05-05 06:07 31.31439 122.53150 19743 ft 377 kts 258°
2026-05-05 06:07 31.30861 122.50159 19743 ft 377 kts 258°
2026-05-05 06:07 31.30283 122.47166 19745 ft 377 kts 258°
2026-05-05 06:08 31.29707 122.44177 19744 ft 377 kts 258°
2026-05-05 06:08 31.29139 122.41186 19744 ft 377 kts 258°
2026-05-05 06:08 31.28574 122.38187 19746 ft 377 kts 258°
2026-05-05 06:08 31.28008 122.35192 19740 ft 377 kts 258°
2026-05-05 06:09 31.27440 122.32200 19749 ft 377 kts 258°
2026-05-05 06:09 31.26872 122.29211 19748 ft 377 kts 258°
2026-05-05 06:09 31.26302 122.26217 19749 ft 377 kts 258°
2026-05-05 06:09 31.25735 122.23244 19691 ft 373 kts 258°
2026-05-05 06:10 31.25176 122.20306 19472 ft 368 kts 258°
2026-05-05 06:10 31.24623 122.17404 19166 ft 365 kts 258°
2026-05-05 06:10 31.24075 122.14510 18814 ft 364 kts 259°
2026-05-05 06:10 31.23551 122.11620 18453 ft 364 kts 259°
2026-05-05 06:11 31.23017 122.08723 18065 ft 365 kts 259°
2026-05-05 06:11 31.22470 122.05820 17737 ft 364 kts 258°
2026-05-05 06:11 31.21920 122.02938 17464 ft 362 kts 258°
2026-05-05 06:11 31.21369 122.00074 17170 ft 361 kts 258°
2026-05-05 06:12 31.20817 121.97211 16877 ft 360 kts 259°
2026-05-05 06:12 31.20273 121.94395 16600 ft 359 kts 259°
2026-05-05 06:12 31.19724 121.91554 16213 ft 359 kts 259°
2026-05-05 06:12 31.19173 121.88706 15680 ft 359 kts 259°
2026-05-05 06:13 31.18802 121.86790 15314 ft 357 kts 259°
2026-05-05 06:13 31.18081 121.83060 14595 ft 354 kts 259°
2026-05-05 06:13 31.17540 121.80268 14062 ft 351 kts 259°
2026-05-05 06:13 31.17039 121.77492 13527 ft 348 kts 262°
2026-05-05 06:14 31.16656 121.74715 12969 ft 345 kts 264°
2026-05-05 06:14 31.16449 121.72882 12617 ft 344 kts 265°
2026-05-05 06:14 31.16182 121.70109 12088 ft 341 kts 267°
2026-05-05 06:14 31.15942 121.67359 11569 ft 339 kts 267°
2026-05-05 06:15 31.15684 121.64627 11052 ft 337 kts 266°
2026-05-05 06:15 31.15407 121.61919 10514 ft 337 kts 266°
2026-05-05 06:15 31.15118 121.59236 10317 ft 325 kts 266°
2026-05-05 06:15 31.14837 121.56676 10250 ft 311 kts 266°
2026-05-05 06:16 31.14566 121.54222 10179 ft 298 kts 266°
2026-05-05 06:16 31.14306 121.51875 10105 ft 286 kts 266°
2026-05-05 06:16 31.14054 121.49609 10031 ft 275 kts 266°
2026-05-05 06:16 31.13810 121.47415 9924 ft 266 kts 266°
2026-05-05 06:17 31.13574 121.45298 9632 ft 265 kts 266°
2026-05-05 06:17 31.13335 121.43158 9321 ft 265 kts 266°
2026-05-05 06:17 31.13101 121.41059 9022 ft 264 kts 266°
2026-05-05 06:17 31.12864 121.38932 8724 ft 264 kts 266°
2026-05-05 06:18 31.12632 121.36815 8429 ft 262 kts 266°
2026-05-05 06:18 31.12753 121.34705 8133 ft 256 kts 287°
2026-05-05 06:18 31.13508 121.32810 7846 ft 254 kts 300°
2026-05-05 06:18 31.14459 121.31105 7526 ft 254 kts 305°
2026-05-05 06:19 31.15559 121.29458 7231 ft 254 kts 309°
2026-05-05 06:19 31.16695 121.27891 6945 ft 253 kts 309°
2026-05-05 06:19 31.17830 121.26316 6657 ft 253 kts 309°
2026-05-05 06:19 31.18950 121.24737 6370 ft 252 kts 309°
2026-05-05 06:20 31.20240 121.23369 6088 ft 251 kts 325°
2026-05-05 06:20 31.21835 121.22606 5809 ft 244 kts 343°
2026-05-05 06:20 31.23500 121.22339 5524 ft 232 kts 353°
2026-05-05 06:20 31.25072 121.22282 5270 ft 220 kts 357°
2026-05-05 06:21 31.26534 121.22285 5093 ft 205 kts 358°
2026-05-05 06:21 31.27946 121.22266 4836 ft 195 kts 357°
2026-05-05 06:21 31.29271 121.22223 4614 ft 186 kts 356°
2026-05-05 06:21 31.30514 121.22165 4403 ft 176 kts 355°
2026-05-05 06:22 31.31696 121.22103 4253 ft 162 kts 355°
2026-05-05 06:22 31.32787 121.22045 4178 ft 156 kts 355°
2026-05-05 06:22 31.33885 121.21986 4150 ft 159 kts 355°
2026-05-05 06:22 31.34979 121.21926 4035 ft 155 kts 355°
2026-05-05 06:23 31.36057 121.21868 3667 ft 154 kts 355°
2026-05-05 06:23 31.37119 121.22004 3247 ft 157 kts 15°
2026-05-05 06:23 31.37968 121.22764 3059 ft 160 kts 45°
2026-05-05 06:23 31.38381 121.23989 2996 ft 163 kts 73°
2026-05-05 06:24 31.38450 121.25312 2988 ft 162 kts 86°
2026-05-05 06:24 31.38405 121.26600 2761 ft 156 kts 91°
2026-05-05 06:24 31.38352 121.27857 2458 ft 152 kts 91°
2026-05-05 06:24 31.38322 121.29087 2135 ft 150 kts 94°
2026-05-05 06:25 31.37979 121.30212 1843 ft 148 kts 120°
2026-05-05 06:25 31.37264 121.31055 1796 ft 145 kts 140°
2026-05-05 06:25 31.36402 121.31629 1783 ft 143 kts 154°
2026-05-05 06:25 31.35470 121.31987 1799 ft 138 kts 165°
2026-05-05 06:26 31.34532 121.32209 1826 ft 138 kts 170°
2026-05-05 06:26 31.33584 121.32404 1791 ft 139 kts 173°
2026-05-05 06:26 31.32629 121.32550 1778 ft 138 kts 175°
2026-05-05 06:26 31.31677 121.32652 1779 ft 138 kts 177°
2026-05-05 06:27 31.30719 121.32736 1781 ft 138 kts 178°
2026-05-05 06:27 31.28813 121.32894 1501 ft 136 kts 178°
2026-05-05 06:27 31.27878 121.32970 1315 ft 134 kts 176°
2026-05-05 06:28 31.26950 121.33046 1135 ft 134 kts 175°
2026-05-05 06:28 31.26023 121.33122 961 ft 134 kts 175°
2026-05-05 06:28 31.25101 121.33197 782 ft 132 kts 175°
2026-05-05 06:28 31.24180 121.33272 605 ft 132 kts 176°
2026-05-05 06:29 31.23267 121.33346 431 ft 132 kts 176°
2026-05-05 06:29 31.22349 121.33421 256 ft 132 kts 176°
2026-05-05 06:29 31.21435 121.33496 81 ft 132 kts 176°
2026-05-05 06:29 31.20577 121.33564 24 ft 107 kts 176°
2026-05-05 06:30 31.20069 121.33602 24 ft 39 kts 176°
2026-05-05 06:30 31.19928 121.33628 24 ft 12 kts 156°
2026-05-05 06:30 31.19913 121.33639 24 ft 1 kts 141°
2026-05-05 06:30 31.19908 121.33644 24 ft 1 kts 134°
2026-05-05 06:31 31.19906 121.33648 24 ft 0 kts 127°
2026-05-05 06:31 31.19905 121.33649 24 ft 0 kts 127°
2026-05-05 06:31 31.19904 121.33651 24 ft 4 kts 127°
2026-05-05 06:31 31.19886 121.33710 24 ft 11 kts 94°
2026-05-05 06:32 31.19900 121.33812 24 ft 8 kts 70°
2026-05-05 06:32 31.19948 121.33860 24 ft 12 kts
2026-05-05 06:32 31.20055 121.33856 24 ft 20 kts 355°
2026-05-05 06:32 31.20219 121.33840 24 ft 27 kts 355°
2026-05-05 06:33 31.20375 121.33831 24 ft 15 kts
2026-05-05 06:33 31.20457 121.33829 24 ft 4 kts
2026-05-05 06:33 31.20478 121.33842 24 ft 3 kts 41°
2026-05-05 06:33 31.20483 121.33849 24 ft 0 kts 53°
2026-05-05 06:34 31.20490 121.33859 24 ft 6 kts 56°
2026-05-05 06:35 31.20481 121.33909 24 ft 7 kts 148°
2026-05-05 06:35 31.20424 121.33917 24 ft 11 kts 177°
2026-05-05 06:35 31.20367 121.33921 24 ft 7 kts 171°
2026-05-05 06:35 31.20326 121.33962 24 ft 9 kts 106°
2026-05-05 06:36 31.20322 121.34024 24 ft 0 kts 86°
2026-05-05 06:36 31.20322 121.34018 24 ft 0 kts 86°